Location: *
(50.6089°N, 2.2719°E)
Time: 13:34:07
(UTC+00:00)

STARLINK-71 - Pass Details

Date: 18 October 2019
Orbit: 548 x 551 km, 53.0° (Epoch: 16 November)

Event Time Altitude Azimuth Distance (km) Brightness Sun altitude
Rises 18:02:11 0° 257° (WSW) 2,714 9.0 -11.6°
Reaches altitude 10° 18:04:25 10° 260° (W) 1,822 7.7 -12.0°
Maximum altitude 18:08:34 75° 345° (NNW) 574 3.7 -12.6°
Enters shadow 18:11:26 19° 70° (ENE) 1,333 5.0 -13.1°
